Torna al catalogo

SL-8 DEB

AttivoPO
NORAD 29282·DEBRIS·🇷🇺 Russia

Lanciato Dec 17, 1981 da Plesetsk Cosmodrome

Loading…

Prossimi Passaggi (prossime 24 ore)

TLE

AggiornatoSource: Space-Track

Epoca: Sep 11, 2026, 22:48 UTC

1 29282U 81120L   26254.95069071  .00000083  00000-0  86775-3 0  9998
2 29282  82.9539  63.6142 0020086 259.3112 256.2857 12.03980433619545

Traccia SL-8 DEB in tempo reale con AllMySat

Download on the App Store